QPF
0.00 0.00 0.02 0.00 0.00 0.00 0.00 0.00 0.00 0.00 0.00 0.00 0.00 0.00 0.00 0.00 0.00 0.04 0.01 0.00 0.00 0.00 0.00 0.00 0.00 0.00 0.00 0.00 0.00 0.00 0.00 0.00 0.00 0.00 0.00 0.00 0.01 0.02 0.02 0.01 0.00 0.00 0.00
0.00 0.00 0.00 0.00 0.00 0.00 0.00 0.00 0.00 0.00 0.00 0.00 0.00 0.00 0.00 0.00 0.00 0.01 0.00 0.00 0.00 0.00 0.00 0.00 0.00 0.00 0.00 0.00 0.00 0.00 0.00 0.00 0.00 0.00 0.00 0.00 0.00 0.01 0.04 0.01 0.00 0.00 0.00
0.00 0.00 0.00 0.00 0.00 0.00 0.00 0.00 0.00 0.00 0.00 0.00 0.00 0.00 0.01 0.04 0.02 0.00 0.00 0.00 0.00 0.00 0.00 0.00 0.00 0.00 0.00 0.00 0.00 0.00 0.00 0.00 0.00 0.00 0.00 0.00 0.00 0.01 0.03 0.09 0.02 0.00 0.00
0.00 0.00 0.00 0.00 0.00 0.00 0.00 0.00 0.00 0.00 0.00 0.00 0.00 0.00 0.00 0.00 0.00 0.00 0.00 0.00 0.00 0.00 0.00 0.00 0.00 0.00 0.00 0.00 0.00 0.00 0.00 0.00 0.00 0.00 0.00 0.00 0.00 0.00 0.01 0.05 0.16 0.03 0.00
0.00 0.00 0.00 0.00 0.00 0.00 0.00 0.00 0.00 0.00 0.00 0.00 0.00 0.00 0.00 0.00 0.00 0.00 0.00 0.00 0.00 0.00 0.00 0.00 0.00 0.00 0.00 0.00 0.00 0.00 0.00 0.00 0.00 0.00 0.00 0.00 0.00 0.00 0.00 0.00 0.08 0.09 0.03
0.00 0.00 0.00 0.00 0.00 0.00 0.00 0.00 0.00 0.00 0.00 0.00 0.00 0.00 0.00 0.00 0.00 0.00 0.00 0.00 0.00 0.00 0.00 0.00 0.00 0.00 0.00 0.00 0.00 0.00 0.00 0.00 0.00 0.00 0.00 0.00 0.00 0.00 0.02 0.00 0.01 0.04 0.04
0.00 0.00 0.00 0.00 0.00 0.00 0.00 0.00 0.00 0.00 0.00 0.00 0.00 0.00 0.00 0.00 0.00 0.00 0.00 0.00 0.00 0.00 0.00 0.00 0.00 0.00 0.00 0.00 0.00 0.00 0.00 0.00 0.00 0.00 0.00 0.00 0.00 0.00 0.00 0.00 0.00 0.03 0.03
0.00 0.00 0.00 0.00 0.00 0.00 0.00 0.00 0.00 0.00 0.00 0.00 0.00 0.00 0.00 0.00 0.00 0.00 0.00 0.00 0.00 0.00 0.00 0.00 0.00 0.00 0.00 0.00 0.00 0.00 0.00 0.00 0.00 0.00 0.00 0.00 0.00 0.00 0.00 0.00 0.07 0.07 0.04
0.00 0.00 0.00 0.00 0.00 0.00 0.00 0.00 0.00 0.00 0.00 0.00 0.00 0.00 0.00 0.00 0.00 0.00 0.00 0.00 0.00 0.00 0.00 0.01 0.03 0.02 0.01 0.00 0.04 0.08 0.04 0.05 0.02 0.00 0.00 0.00 0.00 0.00 0.03 0.04 0.08 0.11 0.14
0.00 0.00 0.00 0.00 0.00 0.00 0.00 0.00 0.00 0.00 0.00 0.00 0.00 0.00 0.00 0.00 0.00 0.00 0.03 0.03 0.06 0.06 0.05 0.05 0.11 0.10 0.11 0.09 0.08 0.06 0.03 0.04 0.01 0.00 0.00 0.00 0.00 0.00 0.00 0.03 0.05 0.08 0.07
0.00 0.00 0.00 0.00 0.00 0.00 0.00 0.00 0.00 0.00 0.00 0.00 0.00 0.00 0.00 0.00 0.00 0.00 0.00 0.00 0.02 0.05 0.05 0.11 0.08 0.06 0.06 0.04 0.05 0.03 0.02 0.01 0.00 0.00 0.00 0.00 0.00 0.00 0.01 0.03 0.03 0.06 0.05
0.00 0.00 0.00 0.00 0.00 0.00 0.00 0.00 0.00 0.00 0.00 0.00 0.00 0.00 0.00 0.00 0.00 0.00 0.00 0.04 0.05 0.08 0.07 0.08 0.08 0.08 0.08 0.01 0.00 0.00 0.00 0.00 0.00 0.00 0.00 0.00 0.00 0.00 0.00 0.02 0.05 0.05 0.04
0.00 0.00 0.00 0.00 0.00 0.00 0.00 0.00 0.00 0.00 0.00 0.00 0.00 0.00 0.00 0.00 0.00 0.00 0.00 0.00 0.00 0.00 0.00 0.00 0.00 0.01 0.01 0.00 0.00 0.00 0.00 0.00 0.00 0.00 0.00 0.00 0.00 0.00 0.00 0.00 0.03 0.04 0.06
0.00 0.00 0.00 0.00 0.00 0.00 0.00 0.00 0.00 0.00 0.00 0.00 0.00 0.00 0.00 0.00 0.00 0.00 0.00 0.01 0.00 0.01 0.00 0.01 0.00 0.00 0.00 0.00 0.00 0.00 0.00 0.00 0.00 0.00 0.00 0.00 0.00 0.00 0.02 0.03 0.03 0.04 0.03
0.00 0.00 0.00 0.00 0.00 0.00 0.00 0.00 0.00 0.00 0.00 0.00 0.00 0.00 0.00 0.00 0.00 0.00 0.00 0.02 0.03 0.01 0.00 0.00 0.00 0.00 0.00 0.00 0.00 0.00 0.00 0.00 0.00 0.00 0.00 0.00 0.00 0.00 0.00 0.04 0.04 0.03 0.03
0.00 0.00 0.00 0.00 0.00 0.00 0.00 0.00 0.00 0.00 0.00 0.00 0.00 0.00 0.00 0.00 0.00 0.00 0.00 0.00 0.00 0.00 0.00 0.00 0.00 0.00 0.00 0.00 0.00 0.00 0.00 0.00 0.00 0.00 0.00 0.00 0.00 0.00 0.00 0.01 0.01 0.02 0.01
0.00 0.00 0.00 0.00 0.00 0.00 0.00 0.00 0.00 0.00 0.00 0.00 0.00 0.00 0.00 0.00 0.00 0.00 0.00 0.00 0.00 0.00 0.00 0.00 0.00 0.00 0.00 0.00 0.00 0.00 0.00 0.00 0.00 0.00 0.00 0.00 0.00 0.00 0.00 0.00 0.00 0.00 0.00
0.00 0.00 0.00 0.00 0.00 0.00 0.00 0.00 0.00 0.00 0.00 0.00 0.00 0.00 0.00 0.00 0.00 0.00 0.00 0.00 0.00 0.00 0.00 0.00 0.00 0.00 0.00 0.00 0.00 0.00 0.00 0.00 0.00 0.00 0.00 0.00 0.00 0.00 0.00 0.00 0.00 0.00 0.00
0.00 0.00 0.00 0.00 0.00 0.00 0.00 0.00 0.00 0.00 0.00 0.00 0.00 0.00 0.00 0.01 0.01 0.00 0.00 0.00 0.00 0.00 0.00 0.00 0.00 0.00 0.00 0.00 0.00 0.00 0.00 0.00 0.00 0.00 0.00 0.00 0.00 0.00 0.00 0.00 0.00 0.00 0.00
0.00 0.00 0.00 0.00 0.00 0.00 0.00 0.00 0.00 0.00 0.00 0.00 0.00 0.00 0.01 0.00 0.00 0.00 0.01 0.00 0.00 0.00 0.00 0.00 0.00 0.00 0.00 0.00 0.00 0.00 0.00 0.00 0.00 0.00 0.00 0.00 0.00 0.00 0.00 0.00 0.00 0.00 0.00
0.00 0.00 0.00 0.00 0.00 0.00 0.00 0.00 0.00 0.00 0.00 0.00 0.00 0.00 0.00 0.00 0.00 0.00 0.00 0.00 0.00 0.00 0.01 0.00 0.00 0.00 0.00 0.00 0.00 0.00 0.00 0.00 0.00 0.00 0.00 0.00 0.00 0.00 0.00 0.00 0.00 0.00 0.00
0.00 0.00 0.00 0.00 0.00 0.00 0.00 0.00 0.00 0.00 0.00 0.00 0.00 0.00 0.00 0.00 0.00 0.00 0.00 0.00 0.00 0.00 0.00 0.00 0.00 0.00 0.00 0.00 0.00 0.00 0.00 0.01 0.00 0.00 0.00 0.00 0.00 0.00 0.00 0.00 0.00 0.00 0.00
0.00 0.00 0.00 0.00 0.00 0.00 0.00 0.00 0.00 0.00 0.00 0.00 0.00 0.00 0.00 0.00 0.00 0.00 0.00 0.01 0.00 0.00 0.00 0.00 0.00 0.00 0.00 0.00 0.00 0.00 0.00 0.00 0.00 0.00 0.00 0.00 0.00 0.00 0.00 0.00 0.00 0.00 0.00
0.00 0.00 0.00 0.00 0.00 0.00 0.00 0.00 0.00 0.00 0.00 0.00 0.00 0.00 0.00 0.00 0.00 0.00 0.00 0.00 0.00 0.00 0.00 0.00 0.01 0.00 0.00 0.00 0.00 0.00 0.00 0.00 0.00 0.00 0.00 0.00 0.00 0.00 0.00 0.00 0.00 0.00 0.00
0.00 0.00 0.00 0.00 0.00 0.00 0.00 0.00 0.00 0.00 0.00 0.00 0.00 0.00 0.00 0.00 0.00 0.00 0.00 0.00 0.00 0.00 0.00 0.00 0.00 0.00 0.00 0.00 0.00 0.00 0.00 0.00 0.00 0.00 0.00 0.00 0.00 0.00 0.00 0.00 0.00 0.00 0.00
0.00 0.00 0.00 0.00 0.00 0.00 0.00 0.00 0.00 0.00 0.00 0.00 0.00 0.00 0.00 0.00 0.00 0.00 0.00 0.00 0.00 0.00 0.00 0.00 0.00 0.00 0.00 0.00 0.00 0.00 0.03 0.02 0.01 0.01 0.01 0.00 0.00 0.01 0.00 0.00 0.00 0.00 0.00
MSLP
1016.27 1016.44 1016.71 1016.98 1017.22 1017.45 1017.62 1017.76 1017.97 1018.20 1018.32 1018.37 1018.39 1018.41 1018.48 1018.48 1018.54 1018.70 1018.75 1018.84 1018.92 1018.92 1018.99 1019.04 1019.09 1019.06 1019.03 1019.01 1018.98 1018.97 1018.98 1019.02 1019.07 1019.07 1019.06 1019.02 1019.08 1019.09 1019.10 1019.20 1019.30 1018.98 1019.53
1015.89 1016.32 1016.83 1017.04 1017.31 1017.59 1017.85 1018.05 1018.28 1018.41 1018.51 1018.61 1018.63 1018.67 1018.70 1018.70 1018.80 1018.81 1018.85 1018.92 1019.01 1019.12 1019.18 1019.21 1019.25 1019.27 1019.27 1019.23 1019.21 1019.24 1019.10 1019.08 1019.12 1019.15 1019.15 1019.10 1019.15 1019.14 1019.30 1019.38 1019.40 1019.31 1019.64
1015.92 1016.28 1016.83 1017.20 1017.40 1017.69 1017.99 1018.22 1018.44 1018.56 1018.69 1018.79 1018.80 1018.83 1018.89 1018.97 1018.95 1019.01 1019.14 1019.22 1019.30 1019.39 1019.44 1019.48 1019.50 1019.50 1019.52 1019.44 1019.38 1019.35 1019.25 1019.28 1019.25 1019.23 1019.33 1018.85 1018.74 1019.32 1019.38 1019.59 1019.74 1019.81 1019.92
1015.78 1016.17 1016.68 1017.32 1017.54 1017.78 1018.04 1018.27 1018.49 1018.63 1018.79 1018.88 1019.00 1019.07 1019.11 1019.15 1019.19 1019.28 1019.40 1019.56 1019.55 1019.56 1019.58 1019.60 1019.58 1019.61 1019.64 1019.67 1019.56 1019.47 1019.48 1019.46 1019.33 1019.40 1019.11 1019.07 1018.98 1019.37 1019.52 1019.65 1019.79 1019.92 1020.06
1015.97 1016.25 1016.66 1017.37 1017.72 1017.98 1018.14 1018.35 1018.54 1018.70 1018.82 1018.99 1019.18 1019.26 1019.30 1019.35 1019.35 1019.49 1019.62 1019.69 1019.69 1019.68 1019.69 1019.65 1019.57 1019.52 1019.53 1019.60 1019.62 1019.57 1019.63 1019.58 1019.47 1019.36 1019.20 1019.22 1019.07 1019.19 1019.36 1019.54 1019.95 1019.99 1020.08
1016.14 1016.43 1017.05 1017.45 1017.82 1018.16 1018.35 1018.54 1018.64 1018.81 1018.89 1019.10 1019.27 1019.31 1019.39 1019.43 1019.45 1019.53 1019.60 1019.64 1019.65 1019.62 1019.63 1019.56 1019.47 1019.41 1019.33 1019.31 1019.31 1019.43 1019.53 1019.58 1019.53 1019.03 1019.15 1019.26 1019.03 1019.24 1019.30 1019.51 1019.68 1019.85 1020.13
1016.41 1016.67 1017.00 1017.58 1017.93 1018.22 1018.45 1018.65 1018.73 1018.88 1018.98 1019.15 1019.30 1019.30 1019.37 1019.36 1019.42 1019.48 1019.49 1019.49 1019.42 1019.39 1019.39 1019.32 1019.29 1019.29 1019.20 1019.14 1019.08 1019.20 1019.29 1019.40 1019.10 1018.99 1018.97 1018.99 1019.02 1019.53 1019.45 1019.49 1019.53 1019.67 1019.94
1016.54 1016.78 1017.04 1017.70 1018.05 1018.29 1018.53 1018.73 1018.85 1018.98 1019.08 1019.23 1019.35 1019.28 1019.28 1019.30 1019.39 1019.40 1019.34 1019.30 1019.16 1019.17 1019.16 1019.16 1019.10 1019.11 1019.04 1019.05 1018.98 1019.05 1019.17 1019.25 1018.94 1018.78 1018.90 1018.80 1019.03 1019.42 1019.45 1019.44 1019.55 1019.59 1019.79
1016.68 1016.90 1017.16 1017.40 1017.98 1018.36 1018.56 1018.71 1018.85 1019.03 1019.14 1019.26 1019.32 1019.24 1019.24 1019.27 1019.33 1019.29 1019.17 1019.20 1019.01 1019.01 1018.92 1018.83 1018.92 1019.00 1018.89 1018.87 1018.85 1018.87 1018.84 1018.94 1018.80 1018.66 1018.73 1018.63 1019.04 1019.25 1019.19 1019.07 1019.28 1019.60 1019.72
1016.84 1017.03 1017.23 1017.52 1017.74 1018.03 1018.24 1018.73 1018.86 1019.02 1019.09 1019.18 1019.22 1019.20 1019.16 1019.11 1019.11 1019.08 1019.02 1018.90 1018.87 1018.66 1018.67 1018.56 1018.51 1018.59 1018.60 1018.75 1018.74 1018.60 1018.61 1018.63 1018.41 1018.46 1018.47 1018.36 1018.96 1019.04 1018.93 1018.74 1018.83 1019.25 1019.53
1016.87 1017.13 1017.32 1017.52 1017.92 1018.23 1018.43 1018.52 1018.78 1018.88 1018.96 1019.05 1019.04 1019.05 1018.96 1018.64 1018.72 1018.80 1018.82 1018.87 1018.72 1018.44 1018.33 1018.36 1018.10 1018.29 1018.49 1018.37 1018.49 1018.48 1018.53 1018.05 1018.27 1018.23 1018.17 1018.55 1018.90 1018.90 1018.79 1018.62 1018.56 1018.72 1019.10
1016.43 1016.83 1017.08 1017.41 1017.64 1018.07 1018.20 1018.43 1018.53 1018.64 1018.62 1018.76 1018.91 1019.05 1018.87 1018.78 1018.86 1018.84 1018.64 1018.51 1018.35 1018.09 1017.94 1018.07 1018.13 1018.08 1017.97 1017.70 1017.70 1018.13 1017.83 1017.94 1018.05 1018.07 1017.99 1018.51 1018.68 1018.74 1018.73 1018.57 1018.49 1018.61 1018.84
1016.18 1016.61 1016.94 1017.23 1017.58 1017.72 1017.99 1018.18 1018.29 1018.38 1018.46 1018.57 1018.82 1018.99 1018.85 1018.79 1018.82 1018.66 1018.49 1018.08 1017.91 1017.79 1017.58 1017.58 1017.62 1017.53 1017.62 1017.54 1017.53 1017.63 1017.71 1017.97 1017.89 1017.86 1017.75 1018.22 1018.44 1018.46 1018.44 1018.41 1018.43 1018.47 1018.59
1016.04 1016.26 1016.56 1016.87 1017.37 1017.60 1017.83 1018.01 1018.03 1018.17 1018.31 1018.37 1018.39 1018.74 1018.71 1018.60 1018.80 1018.55 1018.34 1018.12 1018.04 1017.69 1017.70 1017.68 1017.52 1017.51 1017.36 1017.40 1017.49 1017.53 1017.53 1017.68 1017.55 1017.62 1017.48 1018.01 1018.28 1018.30 1018.33 1018.32 1018.39 1018.42 1018.47
1015.75 1016.00 1016.34 1016.70 1017.18 1017.51 1017.89 1017.91 1018.04 1018.07 1018.09 1018.10 1018.20 1018.29 1018.51 1018.53 1018.51 1018.41 1018.23 1018.04 1017.83 1017.72 1017.55 1017.46 1017.43 1017.19 1016.98 1016.94 1017.04 1017.18 1017.03 1017.11 1017.00 1017.24 1017.26 1017.91 1018.06 1018.10 1018.10 1017.90 1018.12 1018.23 1018.41
1015.35 1015.62 1016.00 1016.44 1016.83 1017.27 1017.63 1017.88 1017.86 1017.88 1017.94 1018.07 1017.96 1018.08 1018.47 1018.35 1018.24 1018.15 1017.95 1017.84 1017.68 1017.58 1017.45 1017.40 1017.22 1016.99 1016.74 1016.70 1016.66 1016.72 1016.76 1016.61 1016.73 1017.00 1016.92 1017.26 1017.92 1017.90 1017.99 1018.06 1018.09 1018.14 1018.17
1014.80 1015.38 1015.73 1016.10 1016.39 1016.91 1017.20 1017.47 1017.62 1017.66 1017.56 1017.70 1017.63 1017.78 1018.00 1018.02 1017.91 1018.01 1017.77 1017.59 1017.40 1017.49 1017.67 1017.23 1016.98 1016.77 1016.62 1016.52 1016.64 1016.46 1016.40 1016.33 1016.37 1016.73 1016.85 1016.92 1017.22 1017.76 1017.80 1017.86 1018.03 1018.20 1018.28
1014.47 1015.00 1015.49 1015.78 1016.12 1016.67 1016.82 1017.08 1017.19 1017.30 1017.46 1017.35 1017.27 1017.35 1017.58 1017.65 1017.60 1017.60 1017.49 1017.38 1017.28 1017.35 1017.34 1016.88 1016.79 1016.50 1016.50 1016.43 1016.28 1016.05 1016.07 1016.02 1016.27 1016.52 1016.64 1016.80 1017.10 1017.17 1017.65 1017.85 1018.02 1018.17 1018.30
1014.08 1014.59 1015.09 1015.55 1015.84 1016.31 1016.66 1016.82 1016.96 1017.07 1017.23 1017.10 1017.07 1017.08 1017.23 1017.26 1017.13 1017.27 1017.20 1017.20 1017.32 1017.05 1017.13 1016.85 1016.71 1016.79 1016.53 1016.42 1016.17 1016.08 1016.07 1015.97 1016.03 1016.20 1016.61 1016.88 1017.13 1017.17 1017.22 1017.95 1018.05 1018.19 1018.27
1013.54 1014.15 1014.54 1015.09 1015.53 1016.03 1016.41 1016.74 1016.76 1016.85 1016.81 1016.80 1016.68 1016.66 1016.99 1016.96 1016.83 1016.97 1016.93 1016.86 1017.03 1016.86 1016.95 1016.90 1016.94 1016.82 1016.76 1016.64 1016.26 1016.08 1016.13 1016.09 1016.16 1016.36 1016.52 1016.63 1016.98 1017.12 1017.23 1017.53 1017.71 1017.82 1018.16
1012.86 1013.45 1013.99 1014.42 1014.93 1015.68 1016.09 1016.26 1016.42 1016.28 1016.41 1016.43 1016.34 1016.48 1016.56 1016.46 1016.59 1016.68 1016.51 1016.71 1016.73 1016.76 1016.90 1017.07 1017.03 1016.88 1016.47 1016.63 1016.29 1016.01 1016.11 1016.23 1016.18 1016.22 1016.16 1016.40 1016.56 1016.76 1016.95 1017.26 1017.47 1017.64 1017.63
1012.08 1012.62 1013.34 1013.73 1014.31 1014.98 1015.35 1015.58 1015.75 1015.92 1016.09 1016.04 1015.96 1016.06 1016.14 1016.17 1016.18 1016.25 1016.43 1016.57 1016.49 1016.47 1016.73 1017.01 1017.08 1016.76 1016.62 1016.75 1016.42 1016.13 1015.69 1015.73 1015.87 1016.22 1016.27 1016.17 1016.27 1016.41 1016.57 1017.02 1017.32 1017.52 1017.62
1011.16 1011.77 1012.37 1012.99 1013.42 1013.92 1014.70 1015.37 1015.67 1015.89 1015.95 1015.90 1015.77 1015.66 1015.45 1015.66 1015.83 1015.92 1016.08 1016.22 1016.27 1016.35 1016.45 1016.85 1016.85 1016.86 1016.52 1016.69 1016.64 1016.38 1015.90 1015.68 1015.89 1015.99 1016.05 1015.97 1016.22 1016.22 1016.24 1016.50 1016.85 1017.09 1017.34
1009.74 1010.67 1011.51 1012.23 1012.90 1013.53 1014.05 1014.62 1014.86 1014.92 1015.04 1015.04 1015.16 1015.26 1015.28 1015.26 1015.36 1015.54 1015.76 1015.80 1015.88 1016.09 1016.32 1016.60 1016.76 1016.80 1016.90 1016.44 1016.56 1016.61 1016.60 1016.40 1015.89 1015.49 1015.86 1015.98 1016.15 1016.17 1016.15 1016.19 1016.36 1016.61 1016.93
1009.34 1009.75 1010.46 1011.45 1012.16 1012.91 1013.44 1013.75 1014.32 1014.74 1014.74 1014.69 1014.90 1015.05 1015.27 1015.29 1015.23 1015.16 1015.28 1015.48 1015.62 1015.83 1016.04 1016.32 1016.45 1016.62 1016.66 1016.67 1016.35 1016.23 1016.41 1016.41 1016.42 1016.06 1015.56 1015.54 1015.58 1015.50 1015.64 1015.80 1015.84 1016.12 1016.50
1008.39 1009.21 1009.90 1010.69 1011.30 1012.13 1012.82 1013.27 1013.71 1014.24 1014.69 1014.81 1014.87 1014.75 1014.79 1014.94 1014.91 1015.01 1015.03 1015.13 1015.35 1015.38 1015.63 1015.77 1016.13 1016.32 1016.44 1016.46 1016.36 1016.29 1016.20 1016.02 1016.22 1016.44 1016.30 1016.02 1015.62 1015.27 1015.32 1015.35 1015.42 1015.59 1015.94
Thickness
5779 5777 5776 5772 5770 5769 5768 5768 5766 5764 5762 5762 5764 5763 5764 5764 5763 5762 5761 5760 5759 5759 5757 5756 5755 5756 5756 5757 5756 5756 5755 5755 5754 5754 5755 5755 5755 5753 5752 5751 5750 5752 5749
5783 5781 5778 5775 5773 5771 5768 5767 5765 5764 5763 5762 5763 5764 5764 5764 5763 5763 5763 5762 5761 5759 5757 5756 5754 5754 5755 5756 5756 5755 5756 5755 5755 5754 5753 5754 5753 5753 5750 5749 5750 5750 5747
5786 5783 5779 5777 5775 5773 5770 5768 5765 5764 5763 5763 5765 5765 5765 5765 5765 5765 5763 5762 5760 5758 5757 5756 5755 5754 5755 5756 5756 5755 5756 5755 5755 5754 5753 5756 5756 5752 5750 5746 5746 5746 5744
5789 5786 5782 5778 5776 5775 5772 5770 5767 5766 5765 5765 5765 5766 5766 5766 5766 5764 5762 5760 5759 5759 5759 5757 5757 5755 5754 5754 5754 5755 5755 5754 5755 5754 5755 5755 5755 5752 5749 5747 5745 5743 5739
5789 5788 5785 5780 5777 5774 5774 5772 5769 5768 5768 5767 5766 5766 5766 5766 5766 5765 5763 5761 5760 5759 5758 5758 5757 5757 5757 5756 5756 5756 5755 5755 5756 5756 5755 5754 5755 5754 5752 5748 5743 5740 5738
5790 5788 5784 5781 5779 5776 5775 5773 5772 5771 5770 5769 5768 5768 5767 5767 5767 5766 5764 5762 5761 5761 5760 5760 5760 5760 5760 5760 5760 5758 5757 5757 5756 5759 5757 5756 5756 5754 5752 5748 5745 5742 5739
5790 5788 5786 5782 5779 5778 5776 5774 5773 5772 5773 5771 5770 5770 5769 5769 5769 5768 5766 5766 5765 5764 5764 5763 5763 5763 5763 5764 5764 5762 5761 5760 5760 5760 5759 5757 5756 5753 5752 5750 5748 5745 5742
5791 5790 5787 5783 5780 5779 5777 5776 5775 5774 5774 5772 5772 5772 5772 5771 5770 5769 5769 5768 5768 5767 5766 5766 5766 5765 5767 5767 5767 5766 5764 5762 5763 5762 5761 5760 5757 5755 5753 5751 5749 5747 5743
5792 5791 5789 5787 5782 5780 5779 5778 5777 5776 5775 5774 5774 5775 5774 5773 5772 5772 5772 5770 5771 5770 5770 5771 5770 5769 5770 5770 5770 5769 5768 5767 5766 5764 5763 5763 5760 5757 5756 5756 5752 5748 5744
5793 5792 5792 5788 5785 5784 5783 5780 5779 5777 5777 5776 5776 5776 5776 5776 5775 5775 5775 5774 5774 5775 5774 5775 5775 5775 5774 5773 5772 5773 5772 5771 5771 5767 5767 5766 5763 5760 5760 5760 5756 5752 5749
5794 5794 5792 5791 5786 5784 5783 5783 5781 5780 5779 5778 5779 5779 5780 5781 5779 5778 5777 5777 5777 5779 5779 5778 5779 5778 5777 5777 5776 5775 5774 5776 5773 5771 5771 5769 5765 5763 5763 5763 5761 5759 5754
5796 5796 5795 5793 5791 5787 5786 5785 5784 5782 5782 5781 5781 5780 5781 5781 5780 5780 5780 5782 5782 5783 5784 5782 5780 5781 5782 5783 5783 5779 5779 5777 5775 5774 5774 5771 5769 5767 5766 5765 5764 5761 5757
5800 5799 5797 5795 5792 5791 5790 5787 5786 5785 5784 5784 5782 5781 5782 5781 5781 5782 5782 5785 5787 5787 5788 5787 5785 5786 5785 5786 5785 5784 5782 5779 5779 5779 5778 5775 5772 5771 5770 5768 5766 5764 5761
5800 5801 5801 5798 5795 5793 5792 5790 5789 5787 5785 5785 5786 5784 5784 5784 5782 5783 5784 5786 5788 5788 5788 5788 5788 5788 5789 5789 5787 5786 5785 5782 5783 5782 5782 5778 5776 5774 5772 5770 5768 5767 5764
5802 5803 5802 5800 5797 5794 5792 5792 5791 5789 5788 5788 5787 5787 5785 5785 5784 5785 5785 5787 5789 5790 5790 5790 5790 5791 5793 5793 5792 5790 5790 5789 5789 5786 5785 5781 5779 5777 5775 5774 5772 5769 5764
5805 5805 5805 5802 5799 5795 5793 5791 5791 5791 5790 5789 5789 5789 5786 5786 5785 5786 5787 5788 5790 5790 5791 5791 5792 5794 5796 5796 5796 5795 5795 5796 5793 5790 5789 5786 5781 5779 5777 5776 5774 5771 5769
5808 5807 5805 5803 5802 5798 5796 5794 5793 5793 5793 5791 5792 5791 5789 5789 5788 5787 5787 5789 5791 5791 5790 5792 5795 5796 5798 5798 5797 5798 5799 5800 5798 5794 5791 5789 5786 5782 5780 5778 5775 5770 5768
5810 5807 5806 5805 5802 5799 5798 5797 5795 5794 5793 5793 5793 5792 5791 5791 5790 5790 5790 5791 5791 5793 5793 5796 5797 5800 5800 5800 5800 5803 5803 5803 5800 5797 5794 5792 5789 5786 5782 5778 5774 5771 5767
5811 5809 5806 5805 5802 5799 5797 5796 5795 5794 5793 5793 5793 5793 5792 5792 5792 5791 5791 5791 5791 5794 5794 5797 5797 5797 5798 5799 5800 5802 5802 5802 5802 5799 5795 5792 5789 5787 5784 5778 5774 5770 5767
5815 5812 5811 5807 5804 5799 5796 5794 5794 5794 5794 5793 5794 5794 5792 5792 5793 5792 5791 5791 5791 5794 5794 5795 5794 5796 5795 5795 5798 5799 5800 5800 5798 5796 5794 5792 5789 5786 5784 5779 5776 5772 5767
5819 5814 5812 5811 5807 5800 5796 5794 5793 5794 5795 5796 5795 5793 5793 5794 5793 5793 5794 5791 5792 5793 5792 5792 5792 5791 5794 5795 5793 5795 5795 5796 5797 5796 5795 5793 5791 5788 5785 5780 5776 5773 5770
5821 5819 5814 5813 5811 5805 5802 5800 5799 5797 5795 5796 5796 5795 5794 5796 5795 5794 5793 5793 5794 5795 5794 5792 5791 5791 5791 5791 5787 5788 5783 5792 5795 5794 5793 5793 5792 5789 5787 5781 5778 5773 5770
5824 5822 5820 5817 5816 5814 5807 5800 5798 5797 5795 5794 5796 5797 5798 5797 5796 5795 5794 5793 5795 5795 5794 5792 5792 5790 5789 5790 5791 5787 5780 5778 5783 5790 5790 5792 5790 5790 5787 5784 5781 5777 5773
5835 5831 5826 5821 5818 5815 5811 5804 5801 5799 5795 5799 5799 5799 5797 5797 5797 5795 5795 5795 5795 5795 5793 5792 5791 5791 5789 5786 5788 5790 5789 5787 5780 5778 5788 5788 5788 5786 5787 5784 5782 5778 5774
5838 5837 5833 5826 5822 5818 5813 5810 5804 5798 5799 5801 5798 5796 5794 5794 5795 5796 5796 5795 5795 5794 5793 5791 5791 5789 5788 5785 5787 5789 5786 5786 5786 5783 5779 5785 5791 5792 5790 5786 5783 5779 5775
5842 5838 5834 5828 5825 5821 5816 5812 5806 5800 5795 5793 5792 5794 5795 5794 5795 5793 5793 5794 5793 5794 5792 5792 5790 5788 5787 5788 5789 5789 5788 5787 5783 5780 5776 5778 5781 5788 5791 5790 5787 5782 5778